Showing default

FOX-1, 40967

Orbit data source: Space-Track

FOX-1, 40967 is a payload satellite owned by AMSAT-NA (US) in LEO that was launched on Thu, 08 Oct 2015 UTC via an ATLAS V 401 launch vehicle from the Air Force Western Test Range (AFWTR). Payload-class satellites include a variety of spacecraft equipped with specific instruments for various scientific and technological missions. These include communications satellites like Starlink; space stations such as the ISS; scientific satellites like the Hubble; Earth observation satellites from companies like Planet Labs, Umbra, and HawkEye 360; GPS; miniature CubeSats for education and research; and military/defense satellites.

Loading next visibility...
Identifier
40967, 2015-058D
Orbit
LEO
Country
Flag of USUS
Related business
Manufacturer
AMSAT-NA
Mission
Operational Amateur Technology
Bus & Motor
CUBESAT 1U, Unknown motor
Mass
1 kg wet, 1 kg dry
Launch date (UTC)
2015-10-08 (10 years ago)
Launch vehicle
ATLAS V 401
Launch site
Air Force Western Test Range (AFWTR)
Object type
Payload
Rocket body
Debris
Shape & HBR
Box, 0.1 m
Radar Cross Section
0.015 m², Medium (>0.1 m² and < 1m²)

Expand to show TLE details & history
Last TLE update: 11 hours ago

TLE from 11 hours ago
0 FOX-1
1 40967U 15058D   25260.78485052  .00005349  00000-0  48228-3 0  9997
2 40967  64.7764  44.2492 0146557 161.7090 198.9373 14.88701697 72986
Epoch: 2025-09-17T18:50Z
TLE epoch observation values (Epoch: 2025-09-17T18:50:11.084Z)
Latitude
-0.00005°
Longitude
124.74717°
Altitude
700.924 km
Speed
7.454 km/s
True Right ascension
02h 56m 59s
True Declination
0° 00' 00"
Sunlit
Object was in full shadow at epoch
Visualization orbit readout
Latitude
Unknown
Longitude
Unknown
Altitude
Unknown
Speed
Unknown
Apparent Right ascension
Unknown
Apparent Declination
Unknown
Sunlit
N/A
Visualization observer readout
Local Sidereal Time
22:55:28
Azimuth
Unknown
Elevation
Unknown
Doppler factor
Unknown
Orbital elements
Apogee altitude
702.837 km
Perigee altitude
498.281 km
Semi-major axis
6,978.696 km
Eccentricity
0.01466
Inclination
64.7764°
RAAN
44.2492°
Arg. of periapsis
161.709°
True anomaly
198.40157°
Mean anomaly
198.9373°
Eccentric anomaly
198.66852°
Mean motion
3.7229 °/min
Orbital period
96.7 mins
BSTAR
0.00048228
Loading maneuver chart data...
Computing Atmospheric mass density...
Loading historical data...
Loading historical data...
Loading historical data...
Loading historical data...
Loading historical data...
Loading historical data...
Loading historical data...

Documentation

Showing up to 5 results
|